Location: downtown San Diego
(32.7310°N, 117.1990°W)
Time: 02:10:55
(UTC-07:00)

Cosmos 1125 Rocket - Pass Details

Date: 19 May 2017
Orbit: 758 x 780 km, 74.0° (Epoch: 26 September)

Event Time Altitude Azimuth Distance (km) Brightness Sun altitude
Rises 20:01:50 0° 351° (N) 3,262 7.3 -4.2°
Reaches altitude 10° 20:04:21 10° 358° (N) 2,328 6.4 -4.7°
Maximum altitude 20:09:22 43° 69° (ENE) 1,082 4.0 -5.6°
Drops below altitude 10° 20:14:19 10° 141° (SE) 2,302 5.4 -6.6°
Enters shadow 20:15:29 - 145° (SE) 2,728 5.8 -6.8°
